Showing default

EXPLORER 20, 870

Orbit data source: Space-Track

EXPLORER 20, 870 is a payload satellite owned by GSFC (US) in LEO that was launched on Tue, 25 Aug 1964 UTC via an SCOUT X-4 launch vehicle from the Air Force Western Test Range (AFWTR). Payloads include a variety of satellites, spacecraft, and rockets equipped with specific instruments for various scientific and technological missions. These include communications satellites like Starlink; space stations such as the ISS; scientific satellites like the Hubble; Earth observation satellites from companies like Planet Labs, Umbra, and HawkEye 360; GPS; miniature CubeSats for education and research; and military/defense satellites.

Loading next visibility...
EXPLORER 20 details
Identifier
870, 1964-051A
Orbit
LEO
Last TLE update16 hours ago
Origin
Flag of USGSFC (US)
ManufacturerCutler-Hammer/AIL
MissionCivil Science
Bus & MotorS-48, Unknown motor
Mass44 kg wet, 44 kg dry
Launch date (UTC)
1964-08-25 (60 years ago)
Launch vehicle
SCOUT X-4
Launch site
Air Force Western Test Range (AFWTR)
Object type
Payload
Rocket body
Debris
Shape & HBRDouble Cone + 6 Rod, 37 m
Radar Cross Section0.292 m², Medium (>0.1 m² and < 1m²)

Expand to show TLE details & history

TLE from 16 hours ago
0 EXPLORER 20
1   870U 64051A   24355.95664400  .00000266  00000-0  19693-3 0  9999
2   870  79.8968 149.8527 0096812 271.1854  87.8212 13.91599066 58341
Epoch: 2024-12-20T22:57Z
Definitive object data (Epoch: 2024-12-20T22:57:34.041Z)
Latitude-0.00004°
Longitude75.44614°
Altitude923.857 km
Speed7.391 km/s
True Right ascension09h 59m 24s
True Declination0° 00' 00"
Sunlit
Object was in daylight at TLE epoch
Visualization TLE readout
Latitude27.74407°
Longitude80.08599°
Altitude959.78 km
Speed7.357 km/s
Apparent Right ascension07h 05m 12s
Apparent Declination-7° 33' 51"
Sunlit
Object is in full shadow
Visualization observer readout
Local Sidereal Time13:39:37
Azimuth269.66° W
Elevation-11.432°
Doppler factor1
Orbital elements
Apogee altitude990.957 km
Perigee altitude849.642 km
Semi-major axis7,298.437 km
Eccentricity0.0096812
Inclination79.8968°
RAAN149.8527°
Arg. of periapsis271.1854°
True anomaly88.93022°
Mean anomaly87.8212°
Eccentric anomaly88.37567°
Mean motion3.48096 °/min
BSTAR0.00019693
Orbital period103.42 mins
Loading maneuver chart data...
Loading historical data...
Loading historical data...
Loading historical data...
Loading historical data...
Loading historical data...
Loading historical data...
Loading historical data...

EXPLORER 20 Visibility forecast

Observer location: undefined°, undefined

Span
Click to sort rows by Start time (UTC) header in descending order
Start Az.
Max El. time (UTC)
Max El. Az.
Max El.
End time (UTC)
End Az.
10 mins2024-12-21 21:59:28.013Z356.254° N2024-12-21 22:03:28.013Z45.322° ENE42.853°2024-12-21 22:09:28.013Z161.063° S
5 mins2024-12-21 23:45:28.013Z300.165° NW2024-12-21 23:47:28.013Z279.102° WNW15.525°2024-12-21 23:50:28.013Z247.001° WSW
11 mins2024-12-22 11:18:28.013Z190.915° SSW2024-12-22 11:23:28.013Z256.474° W44.955°2024-12-22 11:29:28.013Z10.412° NNE
4 mins2024-12-22 13:07:28.013Z282.743° WNW2024-12-22 13:09:28.013Z303.022° NW12.952°2024-12-22 13:11:28.013Z322.514° NNW
|